SCP
0 0 0 0 0 0 0 0 0 0 2 3 4 4 4 3 2 2 2 4 4 6 10 15 21 23 18 12 7 4 3 3 3 2 2 3 3 2 2 2 2 2 1 1
0 0 0 0 0 0 0 0 0 1 2 4 4 4 3 3 2 2 2 3 4 5 8 12 17 18 14 10 6 4 3 3 3 3 3 3 3 2 2 1 1 1 1 1
1 0 0 0 0 0 0 0 1 1 2 4 4 3 2 2 2 1 2 3 4 5 6 7 9 10 9 7 5 4 3 3 3 3 3 2 2 2 1 1 1 1 1 1
0 0 0 0 0 0 0 1 1 2 3 3 3 2 2 2 2 2 1 2 4 5 5 5 5 5 5 5 4 3 3 2 2 3 2 2 1 1 1 1 1 1 1 1
0 0 0 0 0 1 1 1 2 2 3 3 3 2 2 2 2 2 2 2 3 5 5 5 5 4 4 4 3 3 2 2 2 2 1 1 0 0 0 1 1 1 1 1
0 0 0 0 1 1 1 1 2 2 3 3 2 2 2 2 2 1 2 2 3 5 6 6 5 4 3 3 2 2 1 1 1 1 1 0 0 0 1 1 1 1 1 1
0 0 1 1 1 1 1 1 2 2 3 3 2 2 2 2 1 1 1 2 3 4 5 6 5 4 3 2 2 1 1 1 0 0 0 0 1 1 1 1 1 1 1 1
1 1 1 1 1 1 2 2 3 3 3 3 2 2 2 2 1 1 1 1 2 4 5 5 6 5 3 2 2 1 1 0 0 1 1 1 1 1 1 1 1 1 1 1
1 1 1 1 1 2 2 3 3 2 2 2 2 2 2 1 1 1 1 1 2 4 5 5 5 5 3 2 2 1 1 1 1 1 1 1 1 1 1 1 1 0 0 0
1 1 1 1 1 2 2 2 2 2 2 2 2 2 1 1 1 1 1 1 3 4 5 5 5 4 3 2 2 1 1 1 1 1 1 1 1 0 1 1 0 0 0 0
1 1 1 1 1 1 1 1 2 2 2 2 2 2 1 1 1 2 2 3 4 4 3 3 4 3 2 2 2 1 1 1 1 0 0 0 0 0 0 0 0 0 0 0
1 1 1 1 1 1 1 1 1 1 1 1 2 2 1 2 2 2 3 3 3 3 2 3 3 2 2 2 1 1 1 1 0 0 0 0 0 0 0 0 0 0 0 0
1 1 1 1 1 1 1 1 1 1 1 1 1 1 1 2 2 2 2 3 2 2 2 2 2 1 1 1 1 1 1 0 0 0 0 0 0 0 0 0 0 0 0 0
1 1 1 1 1 1 1 1 1 1 1 1 1 1 1 2 2 2 2 2 2 2 2 2 1 1 1 1 1 1 0 0 0 0 0 0 0 0 0 0 0 0 0 0
0 0 0 1 1 1 1 1 1 1 1 1 1 1 2 2 2 2 2 2 2 2 2 1 1 1 1 1 1 0 0 0 0 0 0 0 0 0 0 0 0 0 0 0
0 0 0 1 1 1 1 1 1 1 1 1 1 1 2 2 2 2 2 2 2 2 1 1 1 1 1 1 1 0 0 0 0 0 0 0 0 0 0 0 0 0 0 0
0 0 1 1 1 1 1 0 0 1 1 1 1 1 1 1 2 2 2 2 2 2 1 1 1 1 1 1 1 0 0 0 0 0 0 0 0 0 0 0 0 0 0 0
0 0 0 1 1 1 1 1 1 1 1 1 1 1 1 1 1 2 2 2 2 1 1 1 1 1 1 1 1 0 1 0 0 0 0 0 0 0 0 0 0 0 0 0
0 0 0 0 1 1 1 1 1 1 1 1 1 1 0 0 1 1 1 1 1 1 1 1 0 0 1 1 0 0 1 1 1 1 0 0 0 0 0 0 0 0 0 1
0 0 0 0 0 0 1 1 1 1 1 1 1 1 0 0 0 0 1 1 1 1 1 0 0 0 0 0 0 0 0 1 1 1 1 0 0 0 0 0 0 0 1 1
0 0 0 0 0 0 1 1 1 1 1 1 1 1 1 0 0 0 0 0 0 0 0 0 0 0 0 0 0 0 0 1 1 1 1 0 0 0 0 0 1 1 1 1
0 0 0 0 1 1 1 1 1 1 1 1 1 1 1 1 0 0 0 0 0 0 0 0 0 0 0 0 0 0 0 0 0 0 0 0 0 0 0 0 1 1 1 1
1 1 1 1 1 1 1 1 1 1 1 1 2 2 1 1 1 0 0 0 0 0 0 0 0 0 0 0 0 0 0 0 0 0 0 0 0 0 0 0 1 0 0 0
1 1 1 1 1 1 1 1 1 1 1 1 2 2 1 1 1 0 0 0 0 0 0 0 0 0 0 0 0 0 0 0 0 0 0 0 0 0 0 0 1 0 0 0
1 1 1 1 1 1 1 1 1 1 1 1 1 1 1 1 0 0 0 0 0 0 0 0 0 0 0 0 0 0 0 0 0 0 0 0 0 0 0 1 1 0 0 0
2 1 1 1 1 1 1 1 1 1 1 1 1 1 1 0 0 0 0 0 0 0 0 0 0 0 0 0 0 0 0 0 0 0 0 0 0 0 0 0 0 0 0 0
2 2 1 1 1 1 1 0 0 0 0 0 0 0 0 0 0 0 0 0 0 0 0 0 0 0 0 0 0 0 0 0 0 0 0 0 0 0 0 0 0 0 0 0
Wind_Speed
12 13 12 11 11 11 9 8 8 6 3 5 6 6 7 7 6 6 6 6 6 6 5 5 5 4 3 3 3 2 1 2 2 1 1 1 1 1 2 2 2 2 3 3
13 12 13 13 12 10 8 8 7 5 3 4 6 7 7 7 7 6 6 6 6 6 6 5 4 4 4 3 2 2 1 2 2 1 1 0 1 1 1 2 3 3 3 3
12 12 13 11 8 7 6 6 6 5 0 7 6 6 7 7 6 6 5 5 5 5 5 4 4 4 4 3 2 2 1 1 2 1 0 0 1 1 2 2 2 2 3 3
10 11 12 7 4 4 5 4 4 2 4 6 6 6 6 6 6 6 5 5 5 5 5 4 3 3 4 3 2 2 1 1 1 1 1 1 1 1 1 1 2 2 2 2
8 9 10 8 5 4 4 3 2 3 5 7 6 5 6 6 6 6 5 5 4 5 5 4 4 3 3 3 2 2 2 1 1 1 1 1 1 1 1 1 1 2 1 1
10 10 9 7 2 1 2 2 3 4 5 5 5 3 4 7 7 7 6 5 4 4 5 4 3 3 4 3 2 2 1 2 1 1 1 1 1 1 1 1 1 1 1 1
11 10 7 6 1 2 4 1 3 3 3 4 2 1 7 8 7 7 7 6 5 4 4 4 3 4 3 3 2 1 1 2 2 2 1 1 1 1 1 1 1 1 2 2
8 9 6 3 3 2 1 1 2 3 4 4 5 8 9 9 8 8 7 6 6 4 5 4 4 4 3 2 2 1 2 2 2 1 0 1 1 1 1 2 2 2 2 2
4 3 1 3 2 1 2 1 2 3 4 6 7 8 9 8 8 8 7 6 5 5 5 5 4 4 3 3 2 2 2 2 1 1 1 1 1 2 2 2 2 2 2 3
6 5 4 3 0 1 0 2 3 4 5 5 6 8 9 9 8 7 7 6 5 5 6 5 4 4 3 3 3 2 2 2 2 2 2 1 2 2 2 1 2 2 2 2
8 6 5 4 0 1 1 1 4 5 6 6 7 9 9 8 8 7 6 6 5 5 5 6 5 4 4 4 3 3 2 2 2 2 2 2 2 2 2 1 1 2 2 3
6 5 5 3 2 2 2 2 4 6 6 7 7 9 10 8 8 8 7 6 6 5 5 5 5 5 5 4 4 3 3 2 2 2 2 2 2 2 2 3 4 4 4 4
7 6 5 4 5 4 4 4 5 6 7 7 8 8 9 8 8 8 8 7 7 6 6 6 6 6 5 5 4 4 3 3 3 3 3 3 3 3 2 3 5 7 8 8
4 4 6 5 4 4 4 4 5 7 7 8 8 8 8 8 9 9 8 8 7 7 7 7 6 6 5 5 5 4 4 4 4 3 3 3 3 3 3 3 2 3 6 10
7 7 6 5 4 5 5 6 6 8 8 8 8 8 9 8 8 8 8 8 7 7 6 6 6 5 5 5 5 4 4 3 3 3 4 3 3 4 3 3 2 2 2 4
7 7 6 7 7 7 7 7 7 9 9 9 9 9 9 8 8 8 8 8 8 7 6 6 5 5 5 5 4 3 3 4 4 4 4 4 4 3 3 3 3 2 2 2
8 8 8 9 9 8 8 7 8 9 9 9 9 9 9 9 8 8 7 7 7 6 5 5 5 5 5 4 4 4 4 4 5 5 5 4 3 3 4 4 4 3 3 2
9 9 8 8 8 8 8 8 9 9 9 10 10 10 9 9 9 8 7 7 6 6 6 6 6 6 5 5 4 4 4 4 4 4 3 2 3 4 4 4 5 5 3 3
8 8 9 9 8 8 7 7 8 9 10 10 10 10 9 9 8 8 8 7 7 6 6 6 6 6 5 4 4 4 5 5 4 4 3 3 4 4 4 5 5 4 4 3
9 8 9 9 9 8 8 8 9 9 9 10 10 10 9 8 8 8 7 6 5 4 5 5 6 5 5 5 5 5 5 5 5 4 3 3 3 3 4 5 5 3 3 3
8 8 10 10 9 9 9 9 9 10 10 10 10 9 9 9 8 8 7 6 5 5 6 6 5 5 5 4 5 6 6 5 4 4 3 3 4 4 4 4 4 3 3 3
8 9 10 10 10 9 8 9 10 10 10 10 10 10 9 8 8 7 6 4 5 6 5 5 5 4 4 4 5 6 5 4 4 3 3 4 4 3 3 3 3 3 3 3
7 9 10 11 11 10 9 9 10 10 10 10 10 9 9 7 6 6 6 5 6 6 5 4 5 6 5 5 5 5 4 4 4 3 3 3 3 2 2 3 3 3 3 3
7 9 10 10 10 10 10 10 9 8 9 9 9 9 8 6 5 5 5 6 8 8 5 5 8 7 5 5 5 5 4 3 3 3 3 3 3 2 2 3 3 4 4 4
8 9 10 10 10 9 9 9 9 9 10 8 9 10 8 6 5 5 6 8 10 9 6 7 9 8 6 6 5 4 2 1 2 3 3 3 3 3 3 3 3 3 4 4
7 8 8 8 7 7 8 8 8 8 8 8 7 7 6 5 6 6 6 9 10 8 6 6 7 8 7 6 4 3 2 2 1 1 2 2 3 3 3 3 4 3 3 4
8 8 7 8 8 8 8 9 8 9 8 8 8 7 7 7 6 7 7 7 7 7 6 5 6 6 5 4 3 2 2 1 0 1 1 2 2 2 2 3 3 3 3 4
Wind_Direction
270 271 270 273 279 281 280 286 286 289 248 207 178 147 138 134 136 136 143 148 149 146 140 147 142 133 124 120 124 118 122 122 117 96 65 40 6 339 344 337 341 353 354 358
278 272 275 276 275 278 284 284 278 277 264 156 134 129 133 144 150 150 154 153 150 149 146 140 137 136 130 129 129 131 151 146 125 117 92 44 346 7 2 348 355 354 355 1
281 282 283 273 279 284 292 301 311 316 32 126 126 137 147 156 158 156 148 146 148 148 145 144 142 143 145 144 143 167 164 136 131 128 94 28 351 21 8 353 351 343 353 12
277 285 274 283 287 284 290 302 320 2 122 131 138 137 137 149 153 151 144 146 145 146 144 146 142 142 150 150 163 179 161 142 139 131 88 36 34 33 15 353 345 334 339 3
273 269 270 272 276 288 296 300 6 80 105 114 116 132 139 140 144 141 139 135 137 144 147 152 151 153 155 151 156 164 150 145 128 108 93 57 45 21 4 345 318 307 322 360
261 270 276 283 294 351 285 257 86 103 120 134 156 188 153 141 142 137 129 124 130 136 135 140 142 147 152 150 158 163 148 139 120 113 99 62 43 16 349 314 291 288 312 312
256 263 266 290 320 302 277 76 84 119 142 157 203 119 127 134 135 131 128 129 132 135 134 133 135 142 154 156 159 152 145 130 105 108 127 121 87 347 299 286 289 283 261 263
262 265 264 320 298 337 52 116 121 127 137 136 122 121 133 139 136 136 138 139 138 137 132 130 137 147 151 148 140 143 134 116 108 109 200 122 123 268 267 264 261 252 252 253
282 264 276 325 341 82 144 143 143 146 142 144 147 146 146 146 144 143 146 143 142 144 141 139 147 152 154 152 157 154 130 121 132 177 239 203 225 253 250 250 257 255 243 251
281 259 263 261 227 52 58 166 152 152 153 155 151 149 150 148 147 148 150 151 155 152 152 151 159 160 162 169 165 152 145 152 182 212 217 224 248 255 251 261 284 303 303 306
270 269 279 273 220 104 87 162 150 148 150 151 150 151 152 152 152 154 156 155 156 155 162 161 164 171 181 171 159 153 162 178 210 230 225 236 245 278 283 301 269 276 319 332
273 269 274 270 260 189 183 192 164 151 152 153 152 154 155 154 156 158 157 158 161 166 172 169 174 181 179 172 169 167 185 202 224 236 228 234 231 233 247 238 229 230 239 257
273 283 277 253 248 204 191 187 166 157 160 155 154 156 154 155 156 159 163 167 170 175 177 178 183 181 181 183 184 190 205 217 239 246 240 241 240 240 242 244 242 247 250 252
271 276 269 260 238 182 177 164 154 155 156 155 155 154 152 155 158 165 169 170 172 176 178 182 187 186 187 188 188 199 220 227 235 249 251 250 249 251 244 237 242 244 238 239
247 243 243 234 205 172 169 163 161 159 156 155 156 156 158 160 162 165 164 165 168 177 182 185 186 186 191 193 194 209 228 245 251 264 268 265 264 271 273 257 247 240 241 244
237 229 228 218 198 182 180 177 170 162 160 161 160 161 160 158 159 161 164 169 175 183 183 185 189 191 197 193 197 216 224 239 256 270 275 279 277 285 294 292 286 267 253 256
222 219 221 212 189 184 184 179 171 164 162 164 159 157 158 159 159 162 169 174 179 179 184 190 194 199 199 192 204 230 235 228 228 247 259 269 293 301 300 298 299 294 289 281
214 219 220 211 190 185 183 175 169 164 160 161 160 160 164 165 165 166 171 172 175 180 192 195 193 202 209 205 213 246 250 240 240 252 256 259 278 285 292 294 294 292 290 271
204 214 218 205 192 184 176 168 163 159 159 163 163 164 169 169 167 167 171 176 184 190 195 191 187 204 211 208 223 240 251 253 251 250 254 245 257 272 286 293 293 289 301 304
201 208 207 195 188 176 170 166 160 157 162 164 163 165 170 171 169 170 174 185 194 191 175 175 183 203 213 209 228 246 242 245 252 261 264 264 269 272 278 288 297 303 310 311
196 198 191 185 175 168 167 163 159 159 164 166 168 172 171 171 174 175 181 191 184 176 173 170 189 207 215 218 219 249 251 246 250 260 271 274 276 279 287 291 299 307 305 308
190 188 181 172 166 163 160 160 161 163 165 171 174 173 169 171 175 175 187 191 170 159 175 188 196 193 201 227 233 248 253 256 258 259 264 268 271 278 288 300 314 324 326 332
181 173 168 166 162 157 160 165 165 165 169 174 172 171 173 178 181 180 181 179 169 167 192 189 167 164 184 233 247 249 247 253 256 256 266 281 289 297 314 325 332 335 334 336
169 162 156 154 154 160 166 167 164 166 171 173 172 171 173 176 179 181 171 158 153 163 192 153 159 172 202 240 251 253 249 254 267 278 296 310 321 329 345 351 347 346 344 346
161 156 152 155 162 165 162 161 162 169 174 175 173 173 180 186 185 173 160 154 153 171 184 168 182 191 217 244 251 255 263 289 312 321 328 337 341 347 355 351 349 350 348 356
160 162 156 166 164 163 166 169 171 175 178 174 172 171 175 173 169 161 160 163 168 187 200 178 188 202 227 241 246 256 257 234 236 280 337 351 351 356 1 355 352 355 357 8
166 159 158 168 171 174 175 177 177 178 177 174 170 170 172 171 172 174 173 170 174 190 201 193 193 200 219 232 238 242 247 248 2 3 14 16 3 6 10 4 3 8 7 14